This demonstration page uses our WeatherBlox Daily Observations layout. Learn more.

Hourly Observations for August 28, 2018

Temp ( °F °C ) Dew Point ( °F °C ) Humidity (%) Winds ( mph kmh ) Pressure ( in mb ) Visibility ( mi km ) Precip ( " mm )
12:15 am 00:15 Clear 71 21.8 66 19 84 84 SSE 9 15 29.59 1002 10 16.09344 0 0
12:35 am 00:35 Clear 73 22.6 66 19 80 80 S 8 13 29.59 1002 10 16.09344 0 0
12:55 am 00:55 Clear 73 23 67 19.2 79 79 S 9 15 29.59 1002 10 16.09344 0 0
1:15 am 01:15 Clear 73 22.6 67 19.5 83 83 S 9 15 29.59 1002 10 16.09344 0 0
1:35 am 01:35 Clear 73 22.8 67 19.6 82 82 S 10 17 29.59 1002 10 16.09344 0 0
1:55 am 01:55 Clear 73 22.8 67 19.7 83 83 S 10 17 29.59 1002 10 16.09344 0 0
2:15 am 02:15 Clear 73 22.7 67 19.7 83 83 S 8 13 29.59 1002 10 16.09344 0 0
2:35 am 02:35 Clear 73 22.6 67 19.6 83 83 S 7 11 29.62 1003 10 16.09344 0 0
2:55 am 02:55 Clear 73 22.7 67 19.5 82 82 S 10 17 29.62 1003 10 16.09344 0 0
3:15 am 03:15 Clear 72 22 67 19.2 84 84 SW 9 15 29.65 1004 10 16.09344 0 0
3:35 am 03:35 Clear 73 23 65 18.6 76 76 WNW 6 9 29.65 1004 10 16.09344 0 0
3:55 am 03:55 Clear 71 21.4 66 19 86 86 N 5 7 29.65 1004 10 16.09344 0 0
4:15 am 04:15 Clear 68 20 66 19 94 94 NE 3 6 29.71 1006 10 16.09344 0 0
4:35 am 04:35 Clear 68 20.1 66 19 93 93 ENE 5 7 29.71 1006 10 16.09344 0 0
4:55 am 04:55 Clear 68 20 66 18.7 92 92 N 12 19 29.71 1006 10 16.09344 0 0
5:15 am 05:15 Partly Cloudy 69 20.6 68 20.2 98 98 N 15 24 29.71 1006 10 16.09344 0 0
5:35 am 05:35 Cloudy with Mist and Fog 69 20.5 69 20.4 99 99 N 21 33 29.71 1006 4 6.437376 0 0
5:55 am 05:55 Cloudy with Mist and Fog 66 19 66 19 100 100 NNE 24 39 29.71 1006 5 8.04672 0 0
6:15 am 06:15 Cloudy 66 18.7 65 18.5 99 99 NNE 20 31 29.74 1007 7 11.265408 0 0
6:35 am 06:35 Cloudy 66 18.7 64 18 96 96 NNE 23 37 29.74 1007 10 16.09344 0 0
6:55 am 06:55 Cloudy 65 18.4 63 17 92 92 NNE 16 26 29.74 1007 10 16.09344 0 0
7:15 am 07:15 Cloudy 65 18.2 61 16.3 89 89 NNE 14 22 29.77 1008 10 16.09344 0 0
7:35 am 07:35 Cloudy 64 17.7 60 15.5 87 87 NNE 15 24 29.8 1009 10 16.09344 0 0
7:55 am 07:55 Cloudy 64 17.5 60 15.5 88 88 NNE 17 28 29.83 1010 10 16.09344 0 0
8:15 am 08:15 Cloudy 63 17.4 59 15 86 86 NNE 20 31 29.83 1010 10 16.09344 0 0
8:35 am 08:35 Cloudy 63 17.2 58 14.6 85 85 NNE 16 26 29.83 1010 10 16.09344 0 0
8:55 am 08:55 Cloudy 63 17 58 14.5 85 85 N 17 28 29.83 1010 10 16.09344 0 0
9:15 am 09:15 Cloudy 63 17.2 58 14.5 84 84 NNE 15 24 29.85 1011 10 16.09344 0 0
9:35 am 09:35 Cloudy 63 17 57 14.1 83 83 N 17 28 29.85 1011 10 16.09344 0 0
9:55 am 09:55 Cloudy 62 16.7 56 13.6 82 82 NNE 22 35 29.85 1011 10 16.09344 0 0
10:15 am 10:15 Cloudy 63 17 57 13.9 82 82 N 18 30 29.88 1012 10 16.09344 0 0
10:35 am 10:35 Cloudy 62 16.5 56 13.6 83 83 N 17 28 29.88 1012 10 16.09344 0 0
10:55 am 10:55 Cloudy 62 16.6 56 13.3 81 81 N 20 31 29.88 1012 10 16.09344 0 0
11:15 am 11:15 Cloudy 63 17.2 56 13.3 78 78 N 23 37 29.91 1013 10 16.09344 0 0
11:35 am 11:35 Cloudy 63 17.3 56 13.1 77 77 N 22 35 29.91 1013 10 16.09344 0 0
11:55 am 11:55 Cloudy 63 17.2 56 13.1 77 77 NNE 22 35 29.88 1012 10 16.09344 0 0
12:15 pm 12:15 Cloudy 63 17.1 55 12.9 76 76 N 20 31 29.91 1013 10 16.09344 0 0
12:30 pm 12:30 Cloudy 62 16.6 55 12.8 78 78 N 22 35 29.91 1013 10 16.09344 0 0
12:55 pm 12:55 Cloudy 63 17 55 13 77 77 NNE 21 33 29.91 1013 10 16.09344 0 0
1:15 pm 13:15 Cloudy 63 17 56 13.5 80 80 N 18 30 29.94 1014 10 16.09344 0 0
1:35 pm 13:35 Cloudy 62 16.5 56 13.1 80 80 N 18 30 29.94 1014 10 16.09344 0 0
1:55 pm 13:55 Cloudy 61 16.2 55 12.9 81 81 N 21 33 29.94 1014 10 16.09344 0 0
2:15 pm 14:15 Cloudy with Rain 61 16.1 55 13 82 82 N 16 26 29.94 1014 10 16.09344 0 0
2:35 pm 14:35 Cloudy 60 15.8 55 13 84 84 N 15 24 29.97 1015 10 16.09344 0 0
2:55 pm 14:55 Cloudy 61 16.2 55 13 81 81 NNE 15 24 29.94 1014 10 16.09344 0 0
3:15 pm 15:15 Cloudy 62 16.6 56 13.5 82 82 N 12 19 29.94 1014 10 16.09344 0 0
3:35 pm 15:35 Cloudy 63 17.2 56 13.6 80 80 NNE 12 19 29.94 1014 10 16.09344 0 0
3:55 pm 15:55 Cloudy 63 17 57 13.8 82 82 NNE 13 20 29.94 1014 10 16.09344 0 0
4:15 pm 16:15 Cloudy 63 17 56 13.5 80 80 N 13 20 29.97 1015 10 16.09344 0 0
4:35 pm 16:35 Cloudy 63 17 57 13.7 81 81 NNE 9 15 29.94 1014 10 16.09344 0 0
4:55 pm 16:55 Cloudy 63 17.2 57 13.9 81 81 NNE 9 15 29.97 1015 10 16.09344 0 0
5:15 pm 17:15 Cloudy 64 17.7 58 14.3 81 81 NNE 9 15 29.94 1014 10 16.09344 0 0
5:35 pm 17:35 Cloudy 65 18.1 58 14.6 80 80 N 10 17 29.94 1014 10 16.09344 0 0
5:55 pm 17:55 Cloudy 66 18.8 58 14.2 75 75 NNE 12 19 29.94 1014 10 16.09344 0 0
6:15 pm 18:15 Cloudy 66 18.9 57 14.1 74 74 N 10 17 29.97 1015 10 16.09344 0 0
6:35 pm 18:35 Cloudy 67 19.3 57 14.1 72 72 NNE 14 22 29.94 1014 10 16.09344 0 0
6:55 pm 18:55 Cloudy 67 19.5 58 14.3 72 72 NNE 12 19 29.91 1013 10 16.09344 0 0
7:15 pm 19:15 Cloudy 66 18.9 58 14.4 75 75 NNE 10 17 29.97 1015 10 16.09344 0 0
7:35 pm 19:35 Cloudy 65 18.2 58 14.5 79 79 NNE 8 13 29.97 1015 10 16.09344 0 0
7:55 pm 19:55 Cloudy 64 17.6 58 14.6 83 83 NNE 7 11 29.97 1015 10 16.09344 0 0
8:15 pm 20:15 Cloudy 63 17.2 58 14.5 84 84 NE 6 9 29.97 1015 10 16.09344 0 0
8:35 pm 20:35 Cloudy with Mist and Fog 63 17 59 14.8 87 87 NNE 5 7 30 1016 5 8.04672 0 0
8:55 pm 20:55 Cloudy 62 16.7 59 14.8 89 89 NNE 6 9 30 1016 7 11.265408 0 0
9:15 pm 21:15 Cloudy 61 16.2 58 14.4 89 89 NNE 6 9 30.03 1017 10 16.09344 0 0
9:35 pm 21:35 Mostly Cloudy 59 15.2 57 14 93 93 N 7 11 30.06 1018 10 16.09344 0 0
9:55 pm 21:55 Partly Cloudy 58 14.6 56 13.5 93 93 N 6 9 30.06 1018 10 16.09344 0 0
10:15 pm 22:15 Clear 58 14.3 56 13.3 94 94 N 7 11 30.06 1018 10 16.09344 0 0
10:35 pm 22:35 Clear 57 14 56 13.1 94 94 NNE 7 11 30.06 1018 10 16.09344 0 0
10:55 pm 22:55 Clear 57 13.7 55 13 96 96 NNE 6 9 30.06 1018 10 16.09344 0 0
11:15 pm 23:15 Clear 56 13.1 55 12.6 97 97 NNE 6 9 30.12 1020 10 16.09344 0 0
11:35 pm 23:35 Clear 55 12.9 55 12.5 97 97 N 6 9 30.12 1020 10 16.09344 0 0
11:55 pm 23:55 Clear 55 12.6 54 12.3 98 98 NNE 6 9 30.12 1020 10 16.09344 0 0

Powered by AerisWeather